Regional Weather Roundup
Issued by NWS Green Bay, WI

Home | Current Version | Previous Version | Text Only | Print | Product List | Glossary Off
Versions: 1 2 3 4 5 6 7 8 9 10 11 12 13 14 15 16 17 18 19 20 21 22 23 24 25 26 27 28 29 30 31 32 33 34 35 36 37 38 39 40 41 42 43 44 45 46 47 48 49 50

000
ASUS43 KGRB 202311
RWRGRB

NORTH-CENTRAL AND NORTHEAST WISCONSIN REGIONAL WEATHER ROUNDUP
NATIONAL WEATHER SERVICE GREEN BAY WI
500 PM CST MON FEB 20 2017

WIZ005-009-010>012-018-019-210000-
NORTH CENTRAL WISCONSIN

CITY           SKY/WX    TMP DP  RH WIND       PRES   REMARKS
IRONWOOD       LGT RAIN  48  45  89 SE22G28   29.67F FOG
MANITOWISH WTR RAIN      43  43 100 SE13      29.74F
ARBOR VITAE    RAIN      45  44  93 SE13      29.76F
EAGLE RIVER    RAIN      45  39  81 SE12G17   29.80F
LAND O LAKES   LGT RAIN  44  40  86 SE13G20   29.81F
RHINELANDER    RAIN      47  45  93 SE17G25   29.80F FOG
PHILLIPS       RAIN      45  45 100 S15       29.75S
ANTIGO         RAIN      42  41  96 SE20      29.85F
TOMAHAWK       RAIN      44  43  95 SE10G23   29.78F
MERRILL        NOT AVBL
$$

WIZ013-073-210000-
NORTHEAST WISCONSIN

CITY           SKY/WX    TMP DP  RH WIND       PRES   REMARKS
IRON MOUNTAIN  CLOUDY    43  30  60 SE12      29.90F
MARINETTE      CLOUDY    45  33  63 SE7       29.95F
OCONTO         CLOUDY    48  37  63 SE13      29.93F
$$

WIZ017-030-035>037-045-210000-
CENTRAL WISCONSIN

CITY           SKY/WX    TMP DP  RH WIND       PRES   REMARKS
MEDFORD        RAIN      45  44  97 SE12G17   29.75F
WAUSAU         RAIN      46  44  93 SE14      29.79F FOG
MOSINEE        LGT RAIN  46  46 100 SE15G21   29.82F
MARSHFIELD     RAIN      49  48  97 S16G24    29.77F VSB 1
WISC RAPIDS    LGT RAIN  52  52 100 SE10      29.82F FOG
STEVENS POINT  RAIN      45  45 100 E9        29.83F
WAUPACA        LGT RAIN  50  45  81 SE9       29.89F
SHAWANO        LGT RAIN  51  43  73 S8        29.91S
CLINTONVILLE   CLOUDY    50  41  71 S9        29.90R
WAUTOMA        RAIN      53  51  93 SE7       29.87F FOG
$$

WIZ038-039-048-051-210000-
FOX VALLEY

CITY           SKY/WX    TMP DP  RH WIND       PRES   REMARKS
NWS GREEN BAY  LGT RAIN  51  41  68 SE25G33   29.92F
APPLETON       CLOUDY    48  39  71 SE14G20   29.89F
OSHKOSH        CLOUDY    52  43  71 SE15      29.88F
FOND DU LAC    CLOUDY    53  43  68 SE17      29.90S
$$

WIZ022-050-052-210000-
EAST CENTRAL WISCONSIN

CITY           SKY/WX    TMP DP  RH WIND       PRES   REMARKS
EPHRAIM        CLOUDY    46  34  61 SE16G25   29.95F
WASHINGTON ISL CLOUDY    44  33  64 SE15G23   29.97F
STURGEON BAY   CLOUDY    48  35  60 SE17G26   29.95F
MANITOWOC      CLOUDY    47  35  63 MISG      29.97F
SHEBOYGAN      CLOUDY    47  39  74 S8        29.96F
$$

LMZ563-521-522-541>543-210000-
LAKESHORE

STATION/POSITION TIME  TEMP    WIND        PRES    VSBY  WAVE
                       AIR SEA DIR/SP/G                  HT/PER
                 (UTC) (F)     (DEG/KT/KT) (MB)    (MI)  (FT/S)
SHEBOYGAN LKSHOR 2300   42     160/ 15/ 16 1015.1F
KEWAUNEE LKSHORE 2248   40     170/  8/ 10 1014.1F
NORTHPORT PIER   2240   40     150/ 13/ 16 1015.2F
SISTER BAY LKSHO 2235   47     150/ 15/ 21   N/A
CHAMBERS ISLAND  2240   48     110/  8/ 14 1014.2F
MENOMINEE LKSHOR 2248   43     130/  5/  8 1013.3F
$$




USA.gov is the U.S. government's official web portal to all federal, state and local government web resources and services.